Flag for Australia Weather past 2 weeks in Cairns, Queensland, Australia

Now
79 °F

Scattered clouds.


Feels Like: 82 °F
Forecast: 77 / 87 °F
Wind: 8 mph from South

Location: Cairns Airport

Current Time: Mar 28, 2015 at 7:57:58 AM

Latest Report: Mar 28, 2015 at 7:00 AM


Visibility: N/A

Pressure: 29.98 "Hg

Humidity: 79%

Dew point: 72 °F

Location of CairnsLocation

Historic Weather in Cairns — Graph

°F

Cairns temperature yesterday

Maximum temperature yesterday: 88 °F (at 12:00 PM)
Minimum temperature yesterday: 73 °F (at 4:00 AM)
Average temperature yesterday: 81 °F

Past Weeks' High & Low Weather Summary

 TemperatureHumidityPressure
High91 °F (Mar 16, 1:30 PM)100% (Mar 25, 1:00 AM)30.01 "Hg (Mar 25, 1:00 AM)
Low70 °F (Mar 16, 1:30 AM)38% (Mar 16, 1:30 PM)29.59 "Hg (Mar 13, 3:30 PM)
Average81 °F72%29.86 "Hg
* Reported Mar 13 6:00 AM — Mar 28 6:30 AM, Cairns, Weather by CustomWeather, © 2015

Note: Actual official high and low records may vary slightly from our data, if they occured in-between our weather recording intervals... More about our weather records

Advertising

Cairns weather history for previous 24 hours

 ConditionsComfort  
Time TempWeatherWind HumidityBarometerVisibility
6:30 AM
Sat, Mar 28
75 °FScattered clouds.9 mph89%29.95 "HgN/A
6:00 AM77 °FScattered showers. Passing clouds.7 mph83%29.95 "HgN/A
5:30 AM77 °FPassing clouds.8 mph83%29.95 "HgN/A
5:00 AM77 °FPassing clouds.8 mph83%29.95 "HgN/A
4:30 AM73 °FPassing clouds.9 mph94%29.92 "HgN/A
4:00 AM77 °FPassing clouds.7 mph79%29.92 "HgN/A
3:30 AM75 °FPassing clouds.8 mph83%29.95 "HgN/A
3:00 AM75 °FPassing clouds.9 mph83%29.95 "HgN/A
2:30 AM77 °FScattered showers. Passing clouds.7 mph79%29.95 "HgN/A
2:00 AM75 °FScattered showers. Passing clouds.12 mph89%29.95 "HgN/A
1:30 AM77 °FPassing clouds.5 mph83%29.95 "HgN/A
1:00 AM75 °FPassing clouds.3 mph94%29.95 "HgN/A
12:30 AM75 °FPassing clouds.3 mph89%29.95 "HgN/A
12:00 AM75 °FPassing clouds.6 mph89%29.98 "HgN/A
11:00 PM
Fri, Mar 27
79 °FSprinkles. Partly cloudy.5 mph79%29.98 "Hg4 mi
10:30 PM79 °FPassing clouds.5 mph74%29.98 "HgN/A
10:00 PM79 °FPassing clouds.5 mph74%29.98 "HgN/A
9:30 PM81 °FPassing clouds.5 mph70%29.98 "HgN/A
9:00 PM81 °FPassing clouds.6 mph70%29.98 "HgN/A
8:30 PM79 °FPassing clouds.5 mph79%29.98 "HgN/A
8:00 PM81 °FPassing clouds.7 mph70%29.95 "HgN/A
7:30 PM81 °FPassing clouds.7 mph70%29.95 "HgN/A
7:00 PM81 °FPassing clouds.6 mph70%29.95 "HgN/A
6:00 PM82 °FPartly sunny.12 mph66%29.92 "HgN/A
5:30 PM84 °FPartly sunny.12 mph58%29.92 "HgN/A
5:00 PM86 °FPartly sunny.13 mph55%29.92 "HgN/A
4:30 PM88 °FScattered clouds.12 mph55%29.92 "HgN/A
4:00 PM88 °FPartly sunny.13 mph59%29.89 "HgN/A
3:30 PM88 °FPartly sunny.12 mph55%29.92 "HgN/A
3:00 PM88 °FPartly sunny.12 mph52%29.92 "HgN/A
2:30 PM88 °FPassing clouds.13 mph59%29.92 "HgN/A
2:00 PM88 °FPassing clouds.12 mph59%29.92 "HgN/A
1:00 PM88 °FPassing clouds.13 mph55%29.95 "HgN/A
12:30 PM88 °FPassing clouds.14 mph55%29.95 "HgN/A
12:00 PM88 °FPassing clouds.12 mph55%29.98 "HgN/A
11:30 AM86 °FPassing clouds.8 mph62%29.98 "HgN/A
11:00 AM86 °FPartly sunny.10 mph62%30.01 "HgN/A
10:00 AM84 °FPartly sunny.9 mph62%30.01 "HgN/A
9:30 AM82 °FScattered clouds.9 mph66%30.01 "HgN/A
9:00 AM82 °FScattered clouds.8 mph66%30.01 "HgN/A
8:30 AM81 °FScattered clouds.6 mph66%30.01 "HgN/A
8:00 AM79 °FPassing clouds.7 mph74%30.01 "HgN/A
7:00 AM75 °FPassing clouds.10 mph83%29.98 "HgN/A
Weather by CustomWeather, © 2015

See weather overviewHow to use our weather pages